Time,TemperatureF,DewpointF,PressureIn,WindDirection,WindDirectionDegrees,WindSpeedMPH,WindSpeedGustMPH,Humidity,HourlyPrecipIn,Conditions,Clouds,dailyrainin,SoftwareType,DateUTC
2013-02-20 00:01:00,27.5,10.4,29.74,South,174,0.0,3.0,48,0.00,,,0.00,Wunderground v.1.15,2013-02-20 07:01:00,
2013-02-20 00:07:00,27.9,10.2,29.74,South,174,0.0,3.0,47,0.00,,,0.00,Wunderground v.1.15,2013-02-20 07:07:00,
2013-02-20 00:16:00,28.7,10.5,29.74,South,174,0.0,3.0,46,0.00,,,0.00,Wunderground v.1.15,2013-02-20 07:16:00,
2013-02-20 00:21:00,28.8,10.6,29.73,South,174,0.0,3.0,46,0.00,,,0.00,Wunderground v.1.15,2013-02-20 07:21:00,
2013-02-20 00:26:00,29.0,10.8,29.73,South,174,0.0,3.0,46,0.00,,,0.00,Wunderground v.1.15,2013-02-20 07:26:00,
2013-02-20 00:31:00,28.8,10.6,29.72,South,174,0.0,3.0,46,0.00,,,0.00,Wunderground v.1.15,2013-02-20 07:31:00,
2013-02-20 00:41:00,28.7,11.0,29.72,South,174,0.0,3.0,47,0.00,,,0.00,Wunderground v.1.15,2013-02-20 07:41:00,
2013-02-20 00:46:00,28.5,10.8,29.72,South,174,0.0,3.0,47,0.00,,,0.00,Wunderground v.1.15,2013-02-20 07:46:00,
2013-02-20 00:56:00,28.1,11.8,29.72,South,174,0.0,3.0,50,0.00,,,0.00,Wunderground v.1.15,2013-02-20 07:56:00,
2013-02-20 01:07:00,27.6,11.8,29.73,South,174,0.0,3.0,51,0.00,,,0.00,Wunderground v.1.15,2013-02-20 08:07:00,
2013-02-20 01:16:00,27.3,12.0,29.73,South,174,0.0,3.0,52,0.00,,,0.00,Wunderground v.1.15,2013-02-20 08:16:00,
2013-02-20 01:21:00,27.2,12.3,29.73,South,174,0.0,3.0,53,0.00,,,0.00,Wunderground v.1.15,2013-02-20 08:21:00,
2013-02-20 01:26:00,27.0,12.1,29.73,South,174,0.0,3.0,53,0.00,,,0.00,Wunderground v.1.15,2013-02-20 08:26:00,
2013-02-20 01:36:00,26.7,12.7,29.73,SSW,199,0.0,3.0,55,0.00,,,0.00,Wunderground v.1.15,2013-02-20 08:36:00,
2013-02-20 01:41:00,26.6,12.6,29.73,SSW,199,0.0,3.0,55,0.00,,,0.00,Wunderground v.1.15,2013-02-20 08:41:00,
2013-02-20 07:21:00,20.3,10.4,29.77,SSW,193,0.0,3.0,65,0.00,,,0.00,Wunderground v.1.15,2013-02-20 14:21:00,
2013-02-20 07:31:00,20.5,10.6,29.78,SSW,193,0.0,3.0,65,0.00,,,0.00,Wunderground v.1.15,2013-02-20 14:31:00,
2013-02-20 07:41:00,21.0,11.4,29.78,SSW,193,0.0,3.0,66,0.00,,,0.00,Wunderground v.1.15,2013-02-20 14:41:00,
2013-02-20 07:51:00,21.8,12.5,29.78,SSW,193,0.0,3.0,67,0.00,,,0.00,Wunderground v.1.15,2013-02-20 14:51:00,
2013-02-20 08:01:00,22.5,13.2,29.78,SSW,193,0.0,3.0,67,0.00,,,0.00,Wunderground v.1.15,2013-02-20 15:01:00,
2013-02-20 08:07:00,23.0,13.3,29.77,SSW,193,0.0,3.0,66,0.00,,,0.00,Wunderground v.1.15,2013-02-20 15:07:00,
2013-02-20 08:16:00,23.6,13.5,29.76,SSW,193,0.0,3.0,65,0.00,,,0.00,Wunderground v.1.15,2013-02-20 15:16:00,
2013-02-20 08:26:00,24.1,13.7,29.76,SSW,193,0.0,3.0,64,0.00,,,0.00,Wunderground v.1.15,2013-02-20 15:26:00,
2013-02-20 08:36:00,24.5,14.1,29.77,SSW,193,0.0,3.0,64,0.00,,,0.00,Wunderground v.1.15,2013-02-20 15:36:00,
2013-02-20 08:46:00,25.0,14.2,29.77,SSW,193,0.0,3.0,63,0.00,,,0.00,Wunderground v.1.15,2013-02-20 15:46:00,
2013-02-20 08:51:00,25.1,14.3,29.77,SSW,193,0.0,3.0,63,0.00,,,0.00,Wunderground v.1.15,2013-02-20 15:51:00,
2013-02-20 08:56:00,25.4,14.2,29.77,SSW,193,0.0,3.0,62,0.00,,,0.00,Wunderground v.1.15,2013-02-20 15:56:00,
2013-02-20 09:07:00,25.7,14.1,29.76,SSW,193,0.0,3.0,61,0.00,,,0.00,Wunderground v.1.15,2013-02-20 16:07:00,
2013-02-20 09:16:00,26.0,14.4,29.76,SSW,193,0.0,3.0,61,0.00,,,0.00,Wunderground v.1.15,2013-02-20 16:16:00,
2013-02-20 09:21:00,26.0,14.0,29.75,WNW,287,0.0,3.0,60,0.00,,,0.00,Wunderground v.1.15,2013-02-20 16:21:00,
2013-02-20 09:31:00,26.4,14.4,29.77,WNW,287,0.0,3.0,60,0.00,,,0.00,Wunderground v.1.15,2013-02-20 16:31:00,
2013-02-20 09:41:00,26.9,14.5,29.77,WNW,288,0.0,3.0,59,0.00,,,0.00,Wunderground v.1.15,2013-02-20 16:41:00,
2013-02-20 09:51:00,27.2,14.4,29.76,WNW,288,0.0,3.0,58,0.00,,,0.00,Wunderground v.1.15,2013-02-20 16:51:00,
2013-02-20 09:56:00,27.5,14.2,29.76,WNW,288,0.0,3.0,57,0.00,,,0.00,Wunderground v.1.15,2013-02-20 16:56:00,
2013-02-20 10:07:00,27.8,14.1,29.75,SW,236,0.0,3.0,56,0.00,,,0.00,Wunderground v.1.15,2013-02-20 17:07:00,
2013-02-20 10:16:00,28.4,14.7,29.74,SW,236,0.0,3.0,56,0.00,,,0.00,Wunderground v.1.15,2013-02-20 17:16:00,
2013-02-20 10:26:00,28.4,14.3,29.74,SW,236,0.0,3.0,55,0.00,,,0.00,Wunderground v.1.15,2013-02-20 17:26:00,
2013-02-20 13:31:00,36.3,16.4,29.61,South,188,0.0,3.0,44,0.00,,,0.00,Wunderground v.1.15,2013-02-20 20:31:00,
2013-02-20 13:36:00,36.5,16.6,29.61,South,189,0.0,3.0,44,0.00,,,0.00,Wunderground v.1.15,2013-02-20 20:36:00,
2013-02-20 13:46:00,36.9,16.5,29.59,South,189,0.0,3.0,43,0.00,,,0.00,Wunderground v.1.15,2013-02-20 20:46:00,
2013-02-20 13:56:00,36.9,16.5,29.59,SSW,203,0.0,3.0,43,0.00,,,0.00,Wunderground v.1.15,2013-02-20 20:56:00,
2013-02-20 14:07:00,37.0,17.1,29.59,SSW,200,0.0,3.0,44,0.00,,,0.00,Wunderground v.1.15,2013-02-20 21:07:00,
2013-02-20 14:16:00,36.6,17.2,29.59,SSW,206,0.0,3.0,45,0.00,,,0.00,Wunderground v.1.15,2013-02-20 21:16:00,
2013-02-20 14:21:00,36.5,17.7,29.59,SW,232,0.0,3.0,46,0.00,,,0.00,Wunderground v.1.15,2013-02-20 21:21:00,
2013-02-20 14:27:00,36.3,18.0,29.59,WNW,285,0.0,3.0,47,0.00,,,0.00,Wunderground v.1.15,2013-02-20 21:27:00,
2013-02-20 14:36:00,35.6,19.2,29.60,SSW,195,0.0,3.0,51,0.00,,,0.00,Wunderground v.1.15,2013-02-20 21:36:00,
2013-02-20 14:42:00,35.2,19.3,29.60,NW,308,0.0,3.0,52,0.00,,,0.00,Wunderground v.1.15,2013-02-20 21:42:00,
2013-02-20 14:51:00,34.6,24.0,29.61,NW,308,0.0,3.0,65,0.00,,,0.00,Wunderground v.1.15,2013-02-20 21:51:00,
2013-02-20 14:56:00,34.1,24.6,29.61,NW,308,0.0,3.0,68,0.00,,,0.00,Wunderground v.1.15,2013-02-20 21:56:00,
2013-02-20 15:01:00,33.5,24.8,29.61,NW,308,0.0,3.0,70,0.00,,,0.00,Wunderground v.1.15,2013-02-20 22:01:00,
2013-02-20 15:07:00,33.1,25.1,29.61,NW,308,0.0,3.0,72,0.00,,,0.00,Wunderground v.1.15,2013-02-20 22:07:00,
2013-02-20 15:16:00,32.4,25.4,29.61,WNW,299,0.0,3.0,75,0.00,,,0.00,Wunderground v.1.15,2013-02-20 22:16:00,
2013-02-20 15:21:00,32.1,25.7,29.62,SSE,148,0.0,3.0,77,0.00,,,0.00,Wunderground v.1.15,2013-02-20 22:21:00,
2013-02-20 15:26:00,31.9,25.8,29.62,SSE,148,0.0,3.0,78,0.00,,,0.00,Wunderground v.1.15,2013-02-20 22:26:00,
2013-02-20 15:36:00,31.8,26.3,29.63,SSE,151,0.0,3.0,80,0.00,,,0.00,Wunderground v.1.15,2013-02-20 22:36:00,
2013-02-20 15:41:00,31.6,26.1,29.63,SSE,151,0.0,3.0,80,0.00,,,0.00,Wunderground v.1.15,2013-02-20 22:41:00,
2013-02-20 15:51:00,31.8,26.6,29.63,SSE,151,0.0,3.0,81,0.00,,,0.00,Wunderground v.1.15,2013-02-20 22:51:00,
2013-02-20 16:01:00,31.9,27.0,29.63,SSE,151,0.0,3.0,82,0.00,,,0.00,Wunderground v.1.15,2013-02-20 23:01:00,
2013-02-20 16:07:00,31.9,27.0,29.63,SSE,160,0.0,3.0,82,0.00,,,0.00,Wunderground v.1.15,2013-02-20 23:07:00,
2013-02-20 16:16:00,31.5,26.6,29.63,SSE,160,0.0,3.0,82,0.00,,,0.00,Wunderground v.1.15,2013-02-20 23:16:00,
2013-02-20 16:21:00,31.2,26.3,29.63,SSE,160,0.0,3.0,82,0.00,,,0.00,Wunderground v.1.15,2013-02-20 23:21:00,
2013-02-20 16:32:00,30.7,25.9,29.65,SSW,213,0.0,3.0,82,0.00,,,0.00,Wunderground v.1.15,2013-02-20 23:32:00,
2013-02-20 16:41:00,30.6,26.1,29.65,SSW,213,0.0,3.0,83,0.00,,,0.00,Wunderground v.1.15,2013-02-20 23:41:00,
2013-02-20 17:16:00,30.9,26.3,29.65,SSW,213,0.0,3.0,83,0.00,,,0.00,Wunderground v.1.15,2013-02-21 00:16:00,
2013-02-20 17:21:00,30.9,26.3,29.65,SSW,213,0.0,3.0,83,0.00,,,0.00,Wunderground v.1.15,2013-02-21 00:21:00,
2013-02-20 17:31:00,30.6,26.1,29.65,SSW,213,0.0,3.0,83,0.00,,,0.00,Wunderground v.1.15,2013-02-21 00:31:00,
2013-02-20 17:36:00,30.4,25.9,29.66,SSW,213,0.0,3.0,83,0.00,,,0.00,Wunderground v.1.15,2013-02-21 00:36:00,
2013-02-20 17:46:00,30.0,25.5,29.66,SSW,213,0.0,3.0,83,0.00,,,0.00,Wunderground v.1.15,2013-02-21 00:46:00,
2013-02-20 17:51:00,30.0,25.5,29.67,SSW,213,0.0,3.0,83,0.00,,,0.00,Wunderground v.1.15,2013-02-21 00:51:00,
2013-02-20 18:01:00,29.8,25.3,29.67,SSW,213,0.0,3.0,83,0.00,,,0.00,Wunderground v.1.15,2013-02-21 01:01:00,
2013-02-20 18:07:00,29.7,25.2,29.68,SSW,213,0.0,3.0,83,0.00,,,0.00,Wunderground v.1.15,2013-02-21 01:07:00,
2013-02-20 18:16:00,29.5,25.3,29.69,SSW,213,0.0,3.0,84,0.00,,,0.00,Wunderground v.1.15,2013-02-21 01:16:00,
2013-02-20 18:22:00,29.5,25.3,29.69,SSW,213,0.0,3.0,84,0.00,,,0.00,Wunderground v.1.15,2013-02-21 01:22:00,
2013-02-20 18:31:00,29.4,25.2,29.71,SSW,213,0.0,3.0,84,0.00,,,0.00,Wunderground v.1.15,2013-02-21 01:31:00,
2013-02-20 18:41:00,29.0,24.5,29.71,SSW,213,0.0,3.0,83,0.00,,,0.00,Wunderground v.1.15,2013-02-21 01:41:00,
2013-02-20 18:51:00,28.8,24.3,29.71,SW,215,0.0,3.0,83,0.00,,,0.00,Wunderground v.1.15,2013-02-21 01:51:00,
2013-02-20 19:01:00,28.4,23.9,29.71,SW,215,0.0,3.0,83,0.00,,,0.00,Wunderground v.1.15,2013-02-21 02:01:00,
2013-02-20 19:11:00,27.6,23.1,29.71,SW,215,0.0,3.0,83,0.00,,,0.00,Wunderground v.1.15,2013-02-21 02:11:00,
2013-02-20 19:21:00,27.3,22.8,29.72,SW,215,0.0,3.0,83,0.00,,,0.00,Wunderground v.1.15,2013-02-21 02:21:00,
2013-02-20 19:31:00,26.7,21.9,29.71,WSW,258,0.0,3.0,82,0.00,,,0.00,Wunderground v.1.15,2013-02-21 02:31:00,
2013-02-20 19:36:00,26.4,21.7,29.71,WSW,258,0.0,3.0,82,0.00,,,0.00,Wunderground v.1.15,2013-02-21 02:36:00,
2013-02-20 19:46:00,26.1,21.4,29.71,WSW,258,0.0,3.0,82,0.00,,,0.00,Wunderground v.1.15,2013-02-21 02:46:00,
2013-02-20 19:51:00,26.0,21.3,29.71,WSW,258,0.0,3.0,82,0.00,,,0.00,Wunderground v.1.15,2013-02-21 02:51:00,
2013-02-20 20:01:00,25.7,21.0,29.71,WSW,258,0.0,3.0,82,0.00,,,0.00,Wunderground v.1.15,2013-02-21 03:01:00,
2013-02-20 20:11:00,25.4,20.7,29.71,WSW,258,0.0,3.0,82,0.00,,,0.00,Wunderground v.1.15,2013-02-21 03:11:00,
2013-02-20 20:16:00,25.3,20.6,29.73,WSW,258,0.0,3.0,82,0.00,,,0.00,Wunderground v.1.15,2013-02-21 03:16:00,
2013-02-20 20:21:00,25.1,20.4,29.73,WSW,258,0.0,3.0,82,0.00,,,0.00,Wunderground v.1.15,2013-02-21 03:21:00,
2013-02-20 20:31:00,24.7,20.0,29.73,WSW,258,0.0,3.0,82,0.00,,,0.00,Wunderground v.1.15,2013-02-21 03:31:00,
2013-02-20 20:36:00,24.5,19.8,29.72,WSW,258,0.0,3.0,82,0.00,,,0.00,Wunderground v.1.15,2013-02-21 03:36:00,
2013-02-20 20:46:00,24.2,19.2,29.72,WSW,258,0.0,3.0,81,0.00,,,0.00,Wunderground v.1.15,2013-02-21 03:46:00,
2013-02-20 20:51:00,24.1,19.1,29.73,WSW,258,0.0,3.0,81,0.00,,,0.00,Wunderground v.1.15,2013-02-21 03:51:00,
2013-02-20 21:01:00,23.8,18.8,29.73,WSW,258,0.0,3.0,81,0.00,,,0.00,Wunderground v.1.15,2013-02-21 04:01:00,
2013-02-20 21:07:00,23.8,18.8,29.73,WSW,258,0.0,3.0,81,0.00,,,0.00,Wunderground v.1.15,2013-02-21 04:07:00,
2013-02-20 21:16:00,23.6,18.6,29.74,WSW,254,0.0,3.0,81,0.00,,,0.00,Wunderground v.1.15,2013-02-21 04:16:00,
2013-02-20 21:26:00,23.3,18.3,29.74,WSW,254,0.0,3.0,81,0.00,,,0.00,Wunderground v.1.15,2013-02-21 04:26:00,
2013-02-20 21:36:00,23.0,18.0,29.74,WSW,254,0.0,3.0,81,0.00,,,0.00,Wunderground v.1.15,2013-02-21 04:36:00,
2013-02-20 21:46:00,22.5,17.3,29.74,South,181,0.0,3.0,80,0.00,,,0.00,Wunderground v.1.15,2013-02-21 04:46:00,
2013-02-20 21:56:00,22.1,16.9,29.74,West,260,0.0,3.0,80,0.00,,,0.00,Wunderground v.1.15,2013-02-21 04:56:00,
2013-02-20 22:01:00,21.9,16.7,29.75,NW,319,0.0,3.0,80,0.00,,,0.00,Wunderground v.1.15,2013-02-21 05:01:00,
2013-02-20 22:07:00,21.8,16.9,29.75,NW,319,0.0,3.0,81,0.00,,,0.00,Wunderground v.1.15,2013-02-21 05:07:00,
2013-02-20 22:11:00,21.8,16.9,29.75,NW,319,0.0,3.0,81,0.00,,,0.00,Wunderground v.1.15,2013-02-21 05:11:00,
2013-02-20 22:16:00,21.8,16.9,29.75,NW,319,0.0,3.0,81,0.00,,,0.00,Wunderground v.1.15,2013-02-21 05:16:00,
2013-02-20 22:21:00,21.8,16.9,29.75,NW,319,0.0,3.0,81,0.00,,,0.00,Wunderground v.1.15,2013-02-21 05:21:00,
2013-02-20 22:31:00,21.6,16.7,29.75,North,0,0.0,3.0,81,0.00,,,0.00,Wunderground v.1.15,2013-02-21 05:31:00,
2013-02-20 22:36:00,21.6,16.7,29.71,North,0,0.0,3.0,81,0.00,,,0.00,Wunderground v.1.15,2013-02-21 05:36:00,
2013-02-20 22:46:00,21.4,16.5,29.73,North,0,0.0,3.0,81,0.00,,,0.00,Wunderground v.1.15,2013-02-21 05:46:00,
2013-02-20 22:56:00,21.3,16.4,29.73,North,0,0.0,3.0,81,0.00,,,0.00,Wunderground v.1.15,2013-02-21 05:56:00,
2013-02-20 23:01:00,21.3,16.4,29.73,North,0,0.0,3.0,81,0.00,,,0.00,Wunderground v.1.15,2013-02-21 06:01:00,
2013-02-20 23:07:00,21.1,16.2,29.73,North,0,0.0,3.0,81,0.00,,,0.00,Wunderground v.1.15,2013-02-21 06:07:00,
2013-02-20 23:16:00,21.0,16.1,29.73,North,359,0.0,3.0,81,0.00,,,0.00,Wunderground v.1.15,2013-02-21 06:16:00,
2013-02-20 23:26:00,20.8,15.9,29.73,North,359,0.0,3.0,81,0.00,,,0.00,Wunderground v.1.15,2013-02-21 06:26:00,
2013-02-20 23:36:00,20.6,15.7,29.72,North,359,0.0,3.0,81,0.00,,,0.00,Wunderground v.1.15,2013-02-21 06:36:00,
2013-02-20 23:41:00,20.5,15.6,29.72,North,359,0.0,3.0,81,0.00,,,0.00,Wunderground v.1.15,2013-02-21 06:41:00,
2013-02-20 23:51:00,20.5,15.6,29.72,North,359,0.0,3.0,81,0.00,,,0.00,Wunderground v.1.15,2013-02-21 06:51:00,
2013-02-20 23:56:00,20.3,15.4,29.72,North,359,0.0,3.0,81,0.00,,,0.00,Wunderground v.1.15,2013-02-21 06:56:00,